Погода в Ки-Уэст

США     24°33′19″N   81°48′17″W
темп.,
°C
ветер,
м/с
пор.,
м/с
влажн.,
%
обл.,
%
осадки,
мм/ч
давл.,
гПа
погр.,
м
31 июля, сб
сб3123:00+30в447014 0.0 1018868
02:00+30вюв56694 0.0 10181166
05:00+30юв556780 0.1 10171313
08:00+29юв456910 0.1 10181043
11:00+29юв34697 0.1 1019977
14:00+30юв34706 0.1 1018938
17:00+30юв336712 0.0 1017937
20:00+30в34696 0.0 1018887
1 августа, вс
вс123:00+30вюв447067 0.0 1018834
02:00+30вюв556519 0.0 10171043
05:00+29юв45685 0.0 10171065
08:00+29юв446764 0.0 10181145
11:00+30юв44685 0.0 10191016
14:00+30вюв337012 0.0 1018869
17:00+30вюв33695 0.1 1018880
20:00+30в34705 0.1 1017673
2 августа, пн
пн223:00+30вюв5572100 0.0 1018816
02:00+30юв6673100 0.4 1017868
05:00+30юв557350 0.6 1016956
08:00+29юв557425 0.9 1017855
11:00+30юв44716 0.1 1018881
14:00+30юв447360 0.1 1017843
17:00+30вюв3374100 0.0 1016755
20:00+30вюв4474100 0.5 1016616
3 августа, вт
вт323:00+30юв5569100 1.6 1017768
02:00+29ю4477100 1.6 1015458
05:00+29ю22705 0.0 1014402
08:00+29юв446960 0.0 1016754
11:00+29ююв556960 0.0 1017740
14:00+29ю3367100 0.0 1016593
17:00+29ю216452 0.0 1015521
20:00+30в3364100 0.0 1015512
4 августа, ср
ср423:00+30всв3466100 0.0 1016607
02:00+30вюв5567100 0.0 1015949
05:00+30юв777171 0.1 10141152
08:00+30юв777122 2.8 10161082
11:00+29ююв667475 0.2 1017971
14:00+29ююв5570100 0.3 1017983
17:00+29юв446883 0.0 1016831
20:00+30в4467100 0.0 1015649